Dati Storici

Data ora Umidita' aria (%) Temperatura aria (°C) Rad globale (W/m²) Gonioanemometro (°) Tacoanemometro (m/s) Pioggia (mm)
21-10-2012 19:20 87.1 % 14.332 1.23 208.673 -0.015 0
21-10-2012 19:10 86.3 % 14.745 1.179 133.964 -0.015 0
21-10-2012 19:00 85.9 % 15.196 1.372 116.942 0.222 0
21-10-2012 18:50 86.4 % 15.596 1.449 183.842 0.65 0
21-10-2012 18:40 85.6 % 15.484 1.295 223.399 0.15 0
21-10-2012 18:30 84.5 % 15.504 1.667 127.779 0.245 0
21-10-2012 18:20 83.5 % 15.713 3.115 269.153 0.419 0
21-10-2012 18:10 83 % 15.945 10.296 145.371 0.833 0
21-10-2012 18:00 82.5 % 16.081 16.954 140.02 0.908 0
21-10-2012 17:50 81.7 % 16.285 30.02 204.082 0.891 0
21-10-2012 17:40 80.8 % 16.528 47.159 148.922 0.731 0
21-10-2012 17:30 80.3 % 16.766 59.079 167.234 0.496 0
21-10-2012 17:20 79.6 % 16.789 73.196 124.031 1.283 0
21-10-2012 17:10 79.2 % 16.926 86.387 80.59 0.876 0
21-10-2012 17:00 78.3 % 16.959 95.058 131.329 1.121 0
21-10-2012 16:50 76.4 % 17.089 114.632 133.753 1.054 0
21-10-2012 16:40 74.6 % 17.281 62.8 124.814 0.7 0
21-10-2012 16:30 73 % 17.941 138.885 92.721 0.643 0
21-10-2012 16:20 72.2 % 18.406 176.65 128.266 0.859 0
21-10-2012 16:10 72.2 % 18.525 206.155 132.204 0.272 0

I dati sono presentati in modo automatico a scopo informativo. In seguito a verifica i dati possono subire modifiche o essere invalidati e non riportati negli archivi definitivi.